#timestamp,LO_Frequency,Hit,StdDev 
1633312815.5,286047001.9,N
1633312835.3,286047001.4,N
1633312855.2,286047003.8,N
1633312875.9,286047001.3,N
1633312895.7,286047001.5,N
1633312915.6,286047003.9,N
1633312935.4,286047003.2,N
1633312955.2,286047004.2,N
1633312975.1,286047004.4,N
1633312976.0,286047004.4,N
1633312995.8,286047003.2,N
1633313015.6,286047005.4,Y
1633313035.5,286047004.1,P
1633313055.3,286047001.4,N
1633313075.1,286047003.2,N
1633313095.9,286047003.7,Y
1633313115.7,286046998.7,P
1633313135.5,286046998.4,N
1633313155.4,286046998.1,N
1633313175.2,286047001.2,N
1633313195.0,286047001.0,N
1633313195.9,286047001.0,N
1633313215.8,286047002.3,N
1633313235.6,286047002.6,N
1633313255.4,286047004.1,N
1633313275.3,286047004.2,N
1633313295.1,286047004.0,N
1633313296.0,286047004.0,N
1633313315.8,286047001.3,N
1633313335.7,286047004.2,N
1633313355.5,286047001.9,N
1633313375.3,286047001.7,N
1633313395.2,286047002.1,N
1633313415.9,286047002.0,N
1633313435.7,286047000.1,N
1633313455.6,286047002.8,N
1633313475.4,286047000.1,N
1633313495.2,286046999.8,N
1633313515.1,286047000.5,N
1633313516.0,286047000.5,N
1633313535.8,286047000.8,N
1633313555.6,286046998.6,N
1633313575.5,286046998.3,N
1633313595.3,286047001.1,N
1633313615.1,286047000.7,N
1633313635.9,286046998.9,N
1633313655.7,286046998.2,N
1633313675.5,286047000.5,N
1633313695.4,286047000.6,N
1633313715.2,286046999.8,N
1633313735.0,286047000.9,N
1633313735.9,286047000.9,N
1633313755.8,286047000.7,N
1633313775.6,286047001.0,N
1633313795.4,286047000.4,N
1633313815.3,286046998.4,N
1633313835.1,286046998.2,N
1633313836.0,286046998.2,N
1633313855.8,286046998.4,N
1633313875.7,286046999.9,N
1633313895.5,286046999.7,N
1633313915.3,286046999.8,N
1633313935.2,286047001.4,N
1633313955.9,286047004.4,Y
1633313975.7,286047002.6,P
1633313995.6,286047002.1,N
1633314015.4,286047001.6,N
1633314035.2,286047002.6,N
1633314055.1,286047001.9,N
1633314056.0,286047001.9,N
1633314075.8,286047001.7,N
1633314095.6,286047002.5,Y
1633314115.5,286047000.6,P
1633314135.3,286047001.2,N
1633314155.1,286047000.6,N
1633314175.9,286047001.0,N
1633314195.7,286047000.5,N
1633314215.5,286047002.2,Y
1633314235.4,286047002.3,P
1633314255.2,286047000.1,N
1633314275.0,286047002.6,N
1633314275.9,286047002.6,N
1633314295.8,286047002.8,N
1633314315.6,286047000.2,N
1633314335.4,286047001.0,N
1633314355.3,286047001.0,N
1633314375.1,286047000.7,N
1633314395.8,286046998.2,N
1633314415.7,286046998.1,N
1633314435.5,286047001.2,N
1633314455.3,286046998.4,N
1633314475.2,286046999.0,N
1633314495.9,286046996.9,N
1633314515.7,286046999.5,N
1633314535.6,286046999.0,N
1633314555.4,286046998.3,N
1633314575.2,286047000.8,N
1633314595.1,286047000.0,N
1633314596.0,286047000.0,N
1633314615.8,286046999.7,N
1633314635.6,286047000.3,N
1633314655.5,286047001.0,N
1633314675.3,286047001.1,N
1633314695.1,286046998.2,N
1633314715.9,286046998.3,N
1633314735.7,286046998.3,N
1633314755.5,286046998.8,N
1633314775.4,286047000.2,N
1633314795.2,286046999.8,N
1633314815.0,286046999.8,N
1633314815.9,286046999.8,N
1633314835.8,286047000.1,N
1633314855.6,286046999.7,N
1633314875.4,286047003.2,N
1633314895.3,286047004.1,Y
1633314915.1,286047006.0,P
1633314935.8,286047003.9,N
1633314955.7,286047001.3,N
1633314975.5,286047001.7,N
1633314995.3,286047005.6,N
1633315015.2,286047003.6,N
1633315035.9,286047003.7,N
1633315055.7,286047004.3,N
1633315075.6,286047001.9,N
1633315095.4,286047001.6,N
1633315115.2,286047001.6,N
1633315135.1,286047005.6,Y
1633315136.0,286047005.6,P
1633315155.8,286047004.3,P
1633315175.6,286047004.0,P
1633315195.5,286047004.0,Y
1633315215.3,286046998.5,P
1633315235.1,286046998.7,N
1633315255.9,286046999.1,N
1633315275.7,286046998.2,N
1633315295.5,286046999.4,N
1633315315.4,286046999.4,N
1633315335.2,286046999.6,N
1633315355.0,286046999.1,N
1633315355.9,286046999.1,N
1633315375.8,286046996.9,N
1633315395.6,286046998.8,N
1633315415.4,286046999.2,N
1633315435.3,286046999.4,N
1633315455.1,286046996.9,N
1633315475.8,286046999.1,N
1633315495.7,286046997.0,N
1633315515.5,286046996.9,N
1633315535.3,286046999.6,N
1633315555.2,286046997.8,N
1633315575.9,286046999.5,N
1633315595.7,286046996.8,N
1633315615.6,286046999.3,N
1633315635.4,286046998.3,N
1633315655.2,286047000.8,N
1633315675.1,286047001.2,N
1633315676.0,286047001.2,N
1633315695.8,286047001.0,N
1633315715.6,286047000.7,N
1633315735.5,286047000.4,N
1633315755.3,286047000.7,N
1633315775.1,286046999.9,N
1633315795.9,286046999.9,N
1633315815.7,286047002.1,N
1633315835.5,286046999.8,N
1633315855.4,286046999.8,N
1633315875.2,286047000.9,N
1633315895.0,286047000.2,N
1633315895.9,286047000.2,N
1633315915.8,286046999.8,N
1633315935.6,286047002.6,N
1633315955.4,286047001.9,N
1633315975.3,286047004.4,N
1633315995.1,286047004.4,N
1633316015.8,286047003.8,N
1633316035.7,286047011.9,Y
1633316055.5,286047003.6,P
1633316075.3,286047003.2,N
1633316095.2,286047004.1,N
1633316115.0,286047001.3,N
1633316115.9,286047001.3,N
1633316135.7,286047002.1,N
1633316155.6,286047001.8,N
1633316175.4,286047001.5,N
1633316195.2,286047003.9,Y
1633316215.1,286046999.8,P
1633316216.0,286046999.8,N
1633316235.8,286047002.5,N
1633316255.6,286047001.8,N
1633316275.5,286047001.8,N
1633316295.3,286047003.6,Y
1633316315.1,286047002.2,P
1633316335.9,286047001.8,P
1633316355.7,286047001.6,P
1633316375.5,286047004.4,Y
1633316395.4,286046999.9,P
